Location: Unspecified
(0.0000°N, 0.0000°E)
Time: 00:11:28
(UTC+00:00)

Hubble Space Telescope - Pass Details

Date: 18 July 2017
Orbit: 538 x 541 km, 28.5° (Epoch: 22 September)

Event Time Altitude Azimuth Distance (km) Brightness Sun altitude
Exits shadow 04:41:15 13° 173° (S) 1,630 3.1 -19.8°
Drops below altitude 10° 04:41:54 10° 166° (SSE) 1,786 3.3 -19.6°
Sets 04:44:47 0° 145° (SE) 2,679 4.5 -19.0°
